Weather observations for the past three days for
Titusville
Metric (Imperial)
Date Time (edt) Wind (kph) Vis. (km) Weather Sky Cond. Temperature (ºC) Relative Humidity Wind Chill (°C) Heat Index (°C) Pressure Precipitation (cm)
Air Dwpt 6 hour altimeter (cm) sea level (mb) 1 hr 3 hr 6 hr
Max. Min.
06 20:47 SE 19 G 28 11.27 Fair CLR 27 17 54% 28 76.23 0.0
06 19:47 SE 19 G 28 11.27 Fair CLR 29 15 43% 29 76.23 0.0
06 18:47 SE 19 G 28 11.27 Fair CLR 30 15 40% 30 76.23 0.0
06 17:47 SE 19 G 28 11.27 Fair CLR 31 14 35% 30 76.23 0.0
06 16:47 SE 17 G 26 11.27 A Few Clouds FEW040 32 14 33% 31 76.23 0.0
06 15:47 SE 17 G 26 11.27 A Few Clouds FEW040 33 14 32% 32 76.25 0.0
06 14:47 SE 17 G 26 11.27 A Few Clouds FEW040 33 12 28% 32 76.3 0.0
06 13:47 SE 17 G 26 11.27 A Few Clouds FEW060 33 14 32% 32 76.3 0.0
06 12:47 E 9 11.27 A Few Clouds FEW060 32 17 41% 32 76.35 0.0
06 11:47 SE 19 11.27 A Few Clouds FEW060 31 17 43% 31 76.38 0.0
06 10:47 SE 13 11.27 A Few Clouds FEW060 30 18 49% 31 76.38 0.0
06 09:47 S 13 11.27 Partly Cloudy SCT120 28 21 66% 30 76.35 0.0
06 07:47 Calm 11.27 Partly Cloudy SCT120 20 18 88% 76.3 0.0
06 06:47 Calm 11.27 Partly Cloudy SCT120 18 17 94% 76.25 0.0
05 20:47 SE 9 11.27 Fair CLR 25 15 54% 26 76.23 0.0
05 19:47 E 11 11.27 Fair CLR 26 14 48% 26 76.2 0.0
05 18:47 E 13 11.27 Fair CLR 28 14 42% 28 76.23 0.0
05 17:47 E 15 11.27 A Few Clouds FEW050 28 13 40% 28 76.23 0.0
05 16:47 E 13 11.27 A Few Clouds FEW050 29 13 37% 28 76.2 0.0
05 15:47 E 15 11.27 A Few Clouds FEW050 29 12 35% 28 76.25 0.0
05 14:47 E 15 11.27 Partly Cloudy SCT065 30 13 35% 29 76.28 0.0
05 13:47 E 20 11.27 Partly Cloudy SCT075 30 13 35% 29 76.3 0.0
05 12:47 E 13 11.27 Partly Cloudy SCT075 30 13 35% 29 76.33 0.0
05 11:47 E 13 11.27 Partly Cloudy SCT075 29 14 40% 29 76.3 0.0
05 10:47 E 15 11.27 Partly Cloudy SCT075 28 14 42% 28 76.3 0.0
05 09:47 E 7 11.27 Partly Cloudy SCT075 25 18 65% 26 76.28 0.0
05 08:47 E 7 11.27 Partly Cloudy SCT075 25 18 65% 26 76.28 0.0
05 07:47 E 9 11.27 Fair CLR 24 18 69% 25 76.25 0.0
05 06:47 Calm 11.27 Fair CLR 21 17 78% 76.17 0.0
04 20:47 E 9 11.27 Fair CLR 24 15 57% 25 76.25 0.0
04 19:47 E 9 11.27 Fair CLR 25 14 51% 26 76.23 0.0
04 18:47 E 19 11.27 Partly Cloudy SCT040 26 14 48% 26 76.2 0.0
04 17:47 E 19 11.27 Partly Cloudy SCT040 27 14 45% 27 76.2 0.0
04 16:47 E 19 11.27 Partly Cloudy SCT040 26 14 48% 26 76.23 0.0
04 15:47 E 28 11.27 Partly Cloudy SCT040 27 14 45% 27 76.25 0.0
04 14:47 E 28 11.27 Partly Cloudy SCT040 27 14 45% 27 76.3 0.0
04 13:47 E 28 11.27 Partly Cloudy SCT040 28 14 42% 28 76.33 0.0
04 12:47 E 19 11.27 Partly Cloudy SCT045 27 13 42% 27 76.38 0.0
04 11:47 E 19 11.27 Partly Cloudy SCT042 28 14 42% 28 76.38 0.0
04 10:47 E 26 11.27 Partly Cloudy SCT042 27 14 45% 27 76.38 0.0
04 09:47 NE 22 11.27 Partly Cloudy SCT038 26 13 45% 26 76.35 0.0
04 08:47 NE 24 11.27 Partly Cloudy SCT035 26 15 51% 27 76.3 0.0
04 07:47 NE 13 11.27 Partly Cloudy SCT035 25 14 51% 26 76.28 0.0
04 06:47 NE 13 11.27 Fair CLR 23 16 65% 76.23 0.0
Date Time (edt) Wind (kph) Vis. (km) Weather Sky Cond. Air Dwpt Max. Min. Relative Humidity Wind Chill (°C) Heat Index (°C) altimeter (cm) sea level (mb) 1 hr 3 hr 6 hr
6 hour
Temperature (ºC) Pressure Precipitation (cm)